Tracking 27111 objects as of 29-Mar-2023
HD Live streaming from Space Station
objects crossing your sky now

GAMA-ALPHA

Track GAMA-ALPHA now!
10-day predictions


NORAD ID: 55084
Int'l Code: 2023-001CD
Perigee: 518.5 km
Apogee: 537.3 km
Inclination: 97.5 °
Period: 95.0 minutes
Semi major axis: 6898 km
RCS: Unknown
Launch date: January 3, 2023
Source: Lithuania (LTU)
Launch site: AIR FORCE EASTERN TEST RANGE (AFETR)
Your satellite tracking list
Your tracking list is empty




NASA's NSSDC Master Catalog

Two Line Element Set (TLE):
1 55084U 23001CD  23087.59220361  .00010044  00000-0  53908-3 0  9993
2 55084  97.4855 148.4070 0013635 281.6532  78.3170 15.15059079 12866
Source of the keplerian elements: AFSPC